weather.gov     
National Weather Service

Terminal Aerodrome Forecast
NWS Homepage
This page is being discontinued on March 12, 2014.
The same data is available at this site. Please update your bookmarks.
Thank you, and we apologize for the inconvenience.
Please send an email to SR-SRH.Webmaster@noaa.gov with any concerns.


Current Version
Previous Version:    01  02  03  04  05  06  07  08  09  10  11  12  13  14  15  16  17  18  19  20  21  22  23  24  25  26  27  28  29  30  
   31  32  33  34  35  36  37  38  39  40  41  42  43  44  45  46  47  
[Printable]
861
FTUS41 KBGM 291700
TAFAVP
TAF
KAVP 291733Z 2918/3018 19010KT P6SM OVC080
     FM292100 19010KT P6SM OVC080 WS020/18040KT
     FM300000 20010KT 2SM -SN OVC025 WS020/18040KT
      TEMPO 3001/3005 1SM -SN OVC008
     FM300600 20010KT 2SM -SN OVC025
     FM301200 30013G20KT P6SM OVC025=


U.S. Dept. of Commerce
NOAA National Weather Service
1325 East West Highway
Silver Spring, MD 20910
E-mail: w-nws.webmaster@noaa.gov
Page last modified: May 16, 2007
NATIONAL WEATHER SERVICE: for Safety, for Work, for Fun - FOR LIFE